• In Russia
  • List of Countries
  • For 7 days
  • Water Temperature
  • Satellite Maps
  • Weather Map
  • Weather Widgets
  • user-avatar
    Login

    Hourly Weather Kitzbuhel

    Today, 23 January, Tuesday

    Time Temperature Precipitation Wind Pressure Humidity
    00:00 +2°C° 1 mm 2 mps 674 mmHg 98%
    01:00 +2°C° 1 mm 2 mps 675 mmHg 98%
    02:00 +2°C° 0.5 mm 2 mps 676 mmHg 97%
    03:00 +2°C° 0.5 mm 2 mps 676 mmHg 97%
    04:00 +1°C° 0.5 mm 2 mps 677 mmHg 97%
    05:00 +1°C° 0.8 mm 2 mps 677 mmHg 97%
    06:00 +1°C° 0.8 mm 2 mps 678 mmHg 96%
    07:00 +1°C° 0.8 mm 2 mps 678 mmHg 96%
    08:00 +1°C° 0.7 mm 2 mps 679 mmHg 96%
    09:00 +1°C° 0.7 mm 2 mps 679 mmHg 96%
    10:00 +1°C° 0.7 mm 2 mps 680 mmHg 96%
    11:00 +2°C° 0.2 mm 2 mps 680 mmHg 95%
    12:00 +2°C° 0.2 mm 2 mps 681 mmHg 94%
    13:00 +3°C° 0.2 mm 2 mps 681 mmHg 93%
    14:00 +2°C° 0 mm 2 mps 681 mmHg 94%
    15:00 +3°C° 0 mm 1 mps 681 mmHg 94%
    16:00 +3°C° 0 mm 1 mps 681 mmHg 94%
    17:00 +1°C° 0 mm 1 mps 681 mmHg 90%
    18:00 0°C° 0 mm 1 mps 681 mmHg 85%
    19:00 -3°C° 0 mm 2 mps 681 mmHg 81%
    20:00 -3°C° 0 mm 2 mps 682 mmHg 78%
    21:00 -3°C° 0 mm 2 mps 682 mmHg 74%
    22:00 -3°C° 0 mm 2 mps 682 mmHg 70%
    23:00 -3°C° 0 mm 2 mps 682 mmHg 69%

    Tomorrow, 24 January, Wednesday

    Time Temperature Precipitation Wind Pressure Humidity
    00:00 -3°C° 0 mm 2 mps 682 mmHg 68%
    01:00 -3°C° 0 mm 2 mps 682 mmHg 67%
    02:00 -2°C° 0.1 mm 2 mps 683 mmHg 69%
    03:00 -1°C° 0.1 mm 2 mps 683 mmHg 71%
    04:00 +2°C° 0.1 mm 2 mps 683 mmHg 73%
    05:00 +2°C° 0 mm 2 mps 683 mmHg 74%
    06:00 +2°C° 0 mm 2 mps 683 mmHg 75%
    07:00 +2°C° 0 mm 2 mps 683 mmHg 76%
    08:00 +3°C° 0 mm 1 mps 683 mmHg 80%
    09:00 +4°C° 0 mm 1 mps 683 mmHg 84%
    10:00 +5°C° 0 mm 1 mps 683 mmHg 88%
    11:00 +6°C° 0 mm 1 mps 683 mmHg 91%
    12:00 +6°C° 0 mm 1 mps 682 mmHg 93%
    13:00 +7°C° 0 mm 1 mps 682 mmHg 95%
    14:00 +5°C° 0 mm 2 mps 682 mmHg 95%
    15:00 +5°C° 0 mm 2 mps 681 mmHg 95%
    16:00 +4°C° 0 mm 2 mps 681 mmHg 95%
    17:00 +3°C° 0 mm 2 mps 681 mmHg 91%
    18:00 +2°C° 0 mm 2 mps 681 mmHg 87%
    19:00 +1°C° 0 mm 2 mps 681 mmHg 83%
    20:00 +1°C° 0 mm 2 mps 681 mmHg 81%
    21:00 +1°C° 0 mm 2 mps 681 mmHg 80%
    22:00 +1°C° 0 mm 2 mps 681 mmHg 78%
    23:00 +1°C° 0 mm 2 mps 680 mmHg 77%

    Day after tomorrow, 25 January, Thursday

    Time Temperature Precipitation Wind Pressure Humidity
    00:00 -1°C° 0 mm 2 mps 680 mmHg 76%
    01:00 -1°C° 0 mm 2 mps 680 mmHg 75%
    02:00 -1°C° 0 mm 2 mps 680 mmHg 74%
    03:00 -1°C° 0 mm 2 mps 680 mmHg 74%
    04:00 -1°C° 0 mm 2 mps 679 mmHg 73%
    05:00 +1°C° 0 mm 2 mps 679 mmHg 73%
    06:00 +1°C° 0 mm 2 mps 679 mmHg 73%
    07:00 +1°C° 0 mm 2 mps 679 mmHg 72%
    08:00 +2°C° 0 mm 2 mps 679 mmHg 75%
    09:00 +3°C° 0 mm 2 mps 679 mmHg 77%
    10:00 +3°C° 0 mm 2 mps 679 mmHg 79%
    11:00 +4°C° 0 mm 2 mps 678 mmHg 82%
    12:00 +5°C° 0 mm 2 mps 678 mmHg 85%
    13:00 +5°C° 0 mm 2 mps 677 mmHg 88%
    14:00 +5°C° 0 mm 2 mps 677 mmHg 89%
    15:00 +4°C° 0 mm 2 mps 676 mmHg 90%
    16:00 +4°C° 0 mm 2 mps 676 mmHg 91%
    17:00 +3°C° 0 mm 2 mps 676 mmHg 90%
    18:00 +2°C° 0 mm 2 mps 676 mmHg 89%
    19:00 +1°C° 0 mm 2 mps 676 mmHg 87%
    20:00 +1°C° 0 mm 2 mps 676 mmHg 87%
    21:00 +1°C° 0 mm 2 mps 676 mmHg 87%
    22:00 -1°C° 0 mm 2 mps 676 mmHg 87%
    23:00 -1°C° 0 mm 2 mps 675 mmHg 87%

    26 January, Friday

    Time Temperature Precipitation Wind Pressure Humidity
    00:00 -1°C° 0 mm 2 mps 675 mmHg 87%
    01:00 -1°C° 0 mm 2 mps 675 mmHg 87%
    02:00 -1°C° 0 mm 2 mps 674 mmHg 87%
    03:00 -1°C° 0 mm 2 mps 674 mmHg 87%
    04:00 -1°C° 0 mm 2 mps 674 mmHg 87%
    05:00 -1°C° 0 mm 2 mps 674 mmHg 87%
    06:00 -1°C° 0 mm 2 mps 674 mmHg 87%
    07:00 -1°C° 0 mm 2 mps 673 mmHg 87%
    08:00 +1°C° 0 mm 2 mps 674 mmHg 88%
    09:00 +2°C° 0 mm 2 mps 674 mmHg 88%
    10:00 +3°C° 0 mm 2 mps 674 mmHg 89%
    11:00 +4°C° 0 mm 2 mps 674 mmHg 89%
    12:00 +4°C° 0 mm 2 mps 674 mmHg 90%
    13:00 +5°C° 0 mm 2 mps 674 mmHg 91%
    14:00 +4°C° 0 mm 2 mps 674 mmHg 92%
    15:00 +4°C° 0 mm 2 mps 674 mmHg 93%
    16:00 +3°C° 0 mm 2 mps 674 mmHg 94%
    17:00 +2°C° 0.1 mm 2 mps 674 mmHg 95%
    18:00 +2°C° 0.1 mm 2 mps 675 mmHg 95%
    19:00 +1°C° 0.1 mm 2 mps 675 mmHg 95%
    20:00 +1°C° 0.8 mm 2 mps 675 mmHg 96%
    21:00 +1°C° 0.8 mm 2 mps 676 mmHg 96%
    22:00 +1°C° 0.8 mm 2 mps 676 mmHg 96%
    23:00 +1°C° 1.6 mm 2 mps 677 mmHg 97%

    27 January, Saturday

    Time Temperature Precipitation Wind Pressure Humidity
    00:00 +1°C° 1.6 mm 2 mps 677 mmHg 97%
    01:00 +1°C° 1.6 mm 2 mps 678 mmHg 97%
    02:00 +2°C° 1.1 mm 1 mps 678 mmHg 97%
    03:00 +1°C° 1.1 mm 1 mps 678 mmHg 97%
    04:00 +1°C° 1.1 mm 1 mps 678 mmHg 97%
    05:00 +1°C° 0.8 mm 1 mps 679 mmHg 97%
    06:00 0°C° 0.8 mm 1 mps 679 mmHg 97%
    07:00 0°C° 0.8 mm 1 mps 679 mmHg 97%
    08:00 0°C° 0.4 mm 1 mps 680 mmHg 96%
    09:00 +1°C° 0.4 mm 1 mps 681 mmHg 95%
    10:00 +1°C° 0.4 mm 1 mps 681 mmHg 95%
    11:00 +2°C° 0.4 mm 1 mps 682 mmHg 94%
    12:00 +2°C° 0.4 mm 1 mps 682 mmHg 93%
    13:00 +3°C° 0.4 mm 1 mps 682 mmHg 93%
    14:00 +2°C° 0.4 mm 1 mps 682 mmHg 93%
    15:00 +2°C° 0.4 mm 1 mps 683 mmHg 93%
    16:00 +2°C° 0.4 mm 1 mps 683 mmHg 94%
    17:00 +2°C° 0.1 mm 1 mps 683 mmHg 94%
    18:00 +1°C° 0.1 mm 1 mps 684 mmHg 95%
    19:00 0°C° 0.1 mm 1 mps 684 mmHg 96%
    20:00 -1°C° 0.1 mm 0 mps 684 mmHg 95%
    21:00 -1°C° 0.1 mm 0 mps 685 mmHg 95%
    22:00 -2°C° 0.1 mm 0 mps 685 mmHg 95%
    23:00 -2°C° 0 mm 0 mps 685 mmHg 94%

    28 January, Sunday

    Time Temperature Precipitation Wind Pressure Humidity
    00:00 -2°C° 0 mm 0 mps 685 mmHg 93%
    01:00 -3°C° 0 mm 0 mps 685 mmHg 92%
    02:00 -3°C° 0 mm 0 mps 685 mmHg 92%
    03:00 -2°C° 0 mm 1 mps 685 mmHg 91%
    04:00 -2°C° 0 mm 1 mps 685 mmHg 90%
    05:00 -2°C° 0 mm 1 mps 685 mmHg 89%
    06:00 -2°C° 0 mm 1 mps 686 mmHg 88%
    07:00 -2°C° 0 mm 1 mps 686 mmHg 86%
    08:00 -1°C° 0 mm 1 mps 686 mmHg 85%
    09:00 +1°C° 0 mm 1 mps 687 mmHg 84%
    10:00 +3°C° 0 mm 1 mps 688 mmHg 83%
    11:00 +3°C° 0 mm 1 mps 687 mmHg 85%
    12:00 +4°C° 0 mm 1 mps 687 mmHg 86%
    13:00 +5°C° 0 mm 1 mps 687 mmHg 88%
    14:00 +5°C° 0 mm 1 mps 687 mmHg 88%
    15:00 +4°C° 0 mm 1 mps 687 mmHg 89%
    16:00 +4°C° 0 mm 1 mps 687 mmHg 89%
    17:00 +3°C° 0 mm 1 mps 687 mmHg 85%
    18:00 +2°C° 0 mm 1 mps 687 mmHg 81%
    19:00 -1°C° 0 mm 2 mps 687 mmHg 77%
    20:00 -1°C° 0 mm 2 mps 688 mmHg 76%
    21:00 -1°C° 0 mm 2 mps 688 mmHg 75%
    22:00 -1°C° 0 mm 2 mps 688 mmHg 74%
    23:00 -1°C° 0 mm 2 mps 688 mmHg 74%
    Show more